Location: Ferma
(41.9500°N, 44.5167°E)
Time: 19:55:15
(UTC+00:00)

CZ-4B R/B - Pass Details

Date: 24 October 2021
Orbit: 808 x 882 km, 99.1° (Epoch: 02 December)

Event Time Altitude Azimuth Distance (km) Brightness Sun altitude
Rises 15:01:14 0° 162° (SSE) 3,459 6.3 -10.8°
Reaches altitude 10° 15:03:36 10° 162° (SSE) 2,529 5.6 -11.2°
Maximum altitude 15:09:15 85° 75° (ENE) 892 3.3 -12.2°
Drops below altitude 10° 15:14:57 10° 347° (NNW) 2,545 5.8 -13.3°
Sets 15:17:21 0° 347° (NNW) 3,483 6.5 -13.7°
